Wind_Speed
5 7 6 4 5 3 2 2 1 2 2 1 4 2 4 6 4 6 7 5 4 4 3 5 5 3 8 9 13 11 7 1 3 4 2 3 17 27 24 29 34 30 28 24 23 21 21 23 22 23 24 24 24 22 22 22 23 23 22 22 21 20 20 20 21 21 21 21 20 20 19 19 19 18 18 19 20 19 17 18 19 19 17 16 16 16 15 15 16 15 15 15 15 16 16 16 16
5 8 5 5 5 1 1 2 2 1 3 3 4 4 4 3 3 7 8 7 4 2 2 7 11 10 12 12 10 9 9 7 5 5 4 16 24 23 28 33 33 31 28 25 24 23 22 23 22 23 24 24 24 23 22 22 24 23 22 22 21 21 20 19 20 20 20 20 20 20 18 17 17 17 17 18 20 20 18 17 17 18 17 16 16 15 15 14 14 13 13 15 17 17 16 16 17
5 7 2 4 3 1 0 2 2 2 2 5 5 3 4 4 6 8 9 11 7 8 4 2 8 5 7 7 5 6 5 5 9 8 7 19 19 18 29 32 31 31 28 26 25 24 24 23 22 23 24 25 24 23 23 23 24 23 22 22 21 20 19 19 19 19 20 19 19 19 18 17 17 17 18 19 19 20 18 17 16 16 16 15 15 14 14 13 13 12 13 16 17 18 17 17 17
5 4 2 4 2 1 3 2 2 4 3 4 4 5 4 5 9 10 11 12 6 9 5 2 5 4 5 11 6 7 7 4 7 8 7 12 17 22 30 30 31 30 27 26 25 25 24 23 22 23 24 25 24 24 23 23 23 22 22 21 21 20 19 18 18 19 19 19 19 18 17 16 17 17 18 19 18 18 18 17 16 15 15 15 14 14 13 13 13 12 13 16 17 18 17 17 16
5 3 3 2 2 1 2 1 2 3 5 3 2 6 4 6 8 9 10 9 3 8 7 3 3 2 6 7 2 4 8 7 7 8 10 14 24 30 29 31 31 29 27 26 25 26 24 23 23 24 25 25 25 24 23 24 23 23 22 21 20 19 18 18 17 18 19 19 18 18 17 16 16 17 18 18 17 18 18 17 16 15 15 14 14 13 12 13 12 11 12 14 16 17 17 16 15
4 2 2 0 1 1 1 1 2 4 6 3 3 6 4 7 10 10 11 8 3 6 8 6 5 5 4 4 3 4 8 11 8 9 16 21 29 32 30 31 30 28 27 26 26 25 24 24 23 24 25 25 25 24 23 24 23 23 22 21 19 18 18 18 18 18 19 19 18 18 17 16 16 17 18 17 17 16 16 16 16 16 15 14 13 12 12 11 11 10 11 13 15 16 16 16 15
1 2 0 1 1 1 2 3 4 6 5 5 6 8 8 11 12 10 13 9 4 3 6 8 10 10 4 2 4 5 11 15 11 13 24 29 30 31 31 31 30 28 26 26 26 25 25 24 24 25 25 25 24 23 23 24 23 22 21 20 18 18 18 18 19 19 19 18 18 17 16 16 16 17 17 17 16 15 14 14 15 15 14 14 12 12 11 10 9 9 10 11 13 14 15 14 14
1 1 0 3 1 1 2 3 5 5 4 5 7 9 11 13 13 10 12 9 2 1 7 10 10 10 3 4 3 6 17 23 23 27 34 35 33 31 31 32 30 27 25 26 26 25 24 24 24 24 25 25 23 23 23 23 23 21 20 20 18 18 19 19 19 18 18 18 17 17 16 15 15 16 16 15 14 13 13 13 13 13 13 13 12 11 10 9 8 8 9 10 12 13 14 13 12
1 1 1 2 1 2 2 4 5 6 5 6 8 11 12 13 13 10 10 6 4 3 5 5 5 9 4 9 7 6 18 29 35 34 36 35 34 32 30 31 30 27 25 25 25 24 24 24 25 24 25 24 23 23 23 23 22 21 20 18 18 19 19 20 19 18 17 17 17 17 16 15 15 15 15 14 13 12 12 12 12 11 12 12 11 10 9 8 7 6 7 10 12 13 12 12 11
1 1 1 1 1 2 4 4 5 5 6 6 8 12 12 12 13 11 9 4 7 5 4 4 8 11 9 10 7 7 18 32 36 31 32 33 33 32 30 30 30 29 26 25 25 24 24 24 24 24 24 23 23 23 23 23 21 20 19 18 18 19 19 19 18 17 16 15 16 16 16 16 16 16 16 16 15 14 13 12 11 11 11 11 10 9 7 7 6 6 6 9 11 11 11 10 9
2 2 2 1 1 2 4 4 6 5 7 8 10 14 11 13 14 9 6 3 8 10 8 9 11 12 12 8 4 11 22 30 32 30 31 31 31 32 30 28 29 29 28 26 25 24 24 23 23 23 23 24 24 24 24 22 21 20 19 18 19 19 18 17 17 16 15 15 15 16 16 16 16 17 17 16 16 15 14 13 12 11 10 10 10 8 7 7 7 7 8 9 10 10 9 9 8
1 2 2 2 2 4 4 4 6 7 9 9 11 13 10 15 12 7 5 4 9 12 9 7 9 9 11 5 3 13 21 24 27 30 32 30 31 33 30 28 28 29 28 27 26 25 24 23 23 23 23 25 25 25 23 21 21 19 18 19 19 19 18 17 16 15 14 15 15 16 16 16 16 17 16 15 15 15 14 13 13 12 11 11 11 9 8 7 6 6 7 8 9 9 8 8 8
1 2 3 1 3 3 3 3 5 7 8 8 10 11 5 11 9 7 5 3 4 8 5 8 13 8 7 5 5 10 13 18 25 29 31 30 31 33 31 30 29 29 28 28 27 26 25 25 24 23 23 24 24 23 21 20 19 18 19 19 19 18 17 16 15 14 15 15 16 17 17 17 17 17 16 15 14 13 13 13 13 12 11 11 10 9 7 6 5 5 5 6 7 8 8 8 8
3 2 3 1 2 2 4 4 5 5 6 9 9 7 4 3 4 2 7 7 7 2 3 10 14 11 8 6 5 5 8 19 28 29 29 29 32 33 32 31 29 28 28 27 27 26 26 25 24 24 24 24 23 21 20 19 18 19 19 19 18 17 16 15 14 15 15 16 16 16 17 18 18 18 17 16 14 12 12 12 12 11 10 9 8 7 6 6 5 4 5 5 5 6 8 8 8
5 1 3 1 3 3 4 4 4 4 6 9 7 5 6 2 3 5 9 8 6 3 6 7 5 7 9 8 6 6 13 23 28 30 30 30 32 32 31 30 29 27 27 27 26 26 26 25 24 24 23 23 22 21 20 19 19 20 20 18 17 16 15 15 15 15 16 16 16 16 17 17 18 18 17 16 13 12 11 11 11 11 9 8 7 7 6 5 4 4 4 4 4 3 5 8 8
4 2 1 1 3 4 4 3 2 4 7 7 8 5 5 6 2 4 4 9 6 2 4 2 1 5 10 8 11 16 22 26 29 32 31 31 31 30 29 28 27 26 26 26 26 25 25 25 25 24 23 23 22 21 20 20 20 20 19 17 16 16 15 15 16 16 16 16 16 16 17 18 18 17 16 15 13 12 11 11 11 11 9 8 8 7 6 5 4 4 4 3 3 2 4 7 7
2 2 2 2 4 6 3 2 2 4 8 9 11 7 4 6 5 5 3 12 11 6 7 5 6 7 9 11 19 26 27 28 31 32 30 29 27 26 25 25 25 24 24 25 25 25 24 24 25 25 23 22 22 23 22 21 21 20 19 18 17 16 15 15 16 16 16 16 16 17 17 17 17 16 15 14 12 12 10 10 11 11 10 9 9 8 7 6 6 5 4 3 2 2 4 6 6
2 3 4 4 5 7 3 2 4 4 8 10 13 9 4 3 3 4 6 11 12 12 10 10 13 12 14 20 26 28 28 29 31 29 25 24 22 22 21 22 24 23 23 23 24 24 25 25 24 25 24 23 24 24 25 23 22 21 19 18 17 16 15 15 15 16 17 17 17 17 17 17 16 15 14 12 11 11 10 10 11 12 11 10 9 8 7 6 6 5 4 4 3 2 4 5 4
4 3 4 5 7 6 2 3 8 4 7 10 15 12 1 2 2 3 5 8 13 14 8 11 18 16 17 21 25 25 26 27 28 26 23 21 20 20 20 19 22 22 22 24 24 25 25 25 24 25 25 25 26 26 25 24 22 21 19 18 18 17 16 15 15 16 16 16 16 17 17 16 15 14 12 11 10 10 9 9 11 12 10 9 8 7 6 5 5 5 5 4 4 3 4 4 3
4 4 4 7 8 6 3 6 8 5 7 10 14 11 4 4 4 3 7 8 12 14 8 11 17 17 16 16 20 23 22 22 23 23 21 21 21 21 22 20 21 22 23 25 25 25 25 25 25 25 26 27 27 26 25 23 22 20 19 19 18 17 16 16 16 15 16 16 16 16 16 15 14 13 11 10 10 10 9 10 11 11 9 8 8 7 6 4 5 5 5 6 6 5 4 3 2
2 4 6 8 5 6 8 8 8 7 9 10 9 7 7 7 3 5 9 9 6 10 13 16 20 20 17 14 15 18 18 18 19 20 20 21 20 20 21 21 20 21 23 25 25 25 25 25 26 26 27 28 27 26 24 23 22 21 20 19 17 17 16 17 16 16 16 15 16 16 16 15 14 12 11 10 10 10 10 10 10 9 8 6 6 6 6 4 4 5 6 7 6 6 4 2 1
3 4 7 9 6 7 9 8 8 9 10 9 9 6 4 7 2 4 8 9 6 9 13 19 23 22 20 17 14 14 15 15 15 17 19 20 20 20 20 20 19 20 22 25 24 24 25 25 26 27 27 27 26 25 24 23 22 21 20 19 18 17 16 16 16 16 15 15 15 15 15 14 13 12 12 10 10 10 10 9 9 8 6 5 5 5 5 4 4 4 5 5 5 4 4 4 3
4 6 7 10 8 8 9 9 9 9 9 8 9 6 2 5 6 1 5 7 7 8 12 18 20 20 20 17 15 15 14 14 13 15 18 20 20 22 23 25 26 26 24 23 24 25 26 25 25 27 27 26 25 24 24 23 22 21 20 19 18 17 16 16 16 15 14 15 15 14 14 14 12 12 12 10 9 10 9 9 8 7 6 5 4 3 3 3 3 3 3 3 2 4 5 5 3
5 7 9 11 10 8 10 10 10 9 9 9 7 6 2 1 5 2 4 4 8 9 10 15 16 16 17 14 13 14 14 13 13 17 20 20 23 26 29 32 33 29 24 23 23 26 27 26 25 27 27 25 25 24 23 23 22 21 20 20 18 17 16 16 16 15 14 14 14 14 13 12 11 11 10 9 9 9 8 8 7 6 6 4 2 2 2 1 1 2 2 2 4 5 6 6 2
6 8 10 10 10 9 10 10 10 10 8 7 7 8 6 5 2 3 5 6 11 12 12 14 15 14 14 14 14 12 12 12 14 18 18 20 25 26 28 30 30 27 24 24 25 26 27 26 24 26 26 25 25 24 23 23 22 22 21 20 18 17 16 15 14 13 13 12 11 12 11 11 11 10 10 10 8 7 6 6 6 5 4 3 2 1 1 2 1 3 2 2 4 5 6 7 4
6 8 9 9 10 9 10 10 10 10 6 5 6 7 8 5 2 3 5 9 12 13 14 14 15 14 13 13 13 12 12 12 14 17 17 22 26 25 24 26 27 27 25 26 26 25 26 26 24 25 26 24 24 25 24 23 23 23 22 20 19 18 17 16 14 13 13 12 10 10 12 12 12 11 11 10 8 6 5 5 4 3 2 1 2 1 1 1 0 3 2 2 3 4 5 7 7
6 7 8 9 10 9 8 10 12 10 5 6 7 6 7 6 0 1 3 7 13 14 14 14 14 14 13 13 12 12 13 14 17 19 18 20 23 23 23 24 26 27 26 26 25 23 26 26 25 25 25 24 25 25 24 23 22 22 21 21 20 18 18 16 14 13 13 12 11 11 12 13 12 12 12 10 8 6 6 5 4 3 3 2 1 2 1 0 1 3 2 1 2 3 5 7 8
6 7 9 11 10 8 6 8 10 7 4 8 9 7 6 2 1 6 7 9 13 16 14 13 13 12 12 13 11 10 11 15 21 21 18 18 21 24 25 27 28 27 26 26 23 24 26 26 25 25 25 25 25 25 25 23 21 21 21 21 19 18 17 17 16 14 14 13 13 12 13 13 12 12 11 10 8 7 6 6 6 5 4 4 2 2 2 2 3 4 3 3 3 3 4 6 7
6 5 6 10 10 8 7 6 8 6 4 7 8 5 5 1 5 7 10 11 12 16 15 12 11 10 11 11 10 9 10 16 19 18 20 22 25 28 28 29 28 27 27 24 24 26 26 26 26 25 25 25 25 25 25 24 21 20 21 21 19 18 18 17 16 15 15 15 13 13 13 12 12 12 11 10 9 8 7 8 8 7 6 5 4 3 3 4 5 6 5 4 5 5 5 6 6
5 5 3 7 7 7 7 4 6 5 5 7 6 4 6 5 9 7 9 13 13 13 13 11 9 8 9 9 9 10 10 14 15 18 24 26 28 30 30 29 27 27 26 23 26 27 26 27 27 26 27 26 25 25 25 24 21 21 22 20 19 19 18 17 16 15 15 16 14 13 12 10 11 12 11 11 10 9 8 8 9 9 7 6 5 5 6 7 7 7 6 6 6 7 7 6 5
3 6 3 3 3 6 7 3 2 4 5 6 7 4 6 8 11 8 9 14 15 14 12 11 9 8 8 8 9 10 10 11 15 21 26 28 30 30 30 29 26 26 26 26 27 28 27 27 28 28 28 27 26 25 24 23 21 22 21 19 20 19 19 18 17 16 15 15 14 12 11 10 11 12 11 10 9 8 8 7 8 8 7 7 7 6 7 8 9 7 7 6 8 10 9 8 6
1 2 4 3 3 5 8 6 4 5 6 3 7 5 5 7 11 10 8 13 15 14 13 11 11 10 9 8 8 9 9 9 14 20 26 29 31 31 31 31 27 26 27 26 25 26 27 27 29 29 28 27 26 25 23 22 21 20 19 19 20 20 19 18 16 15 13 13 13 12 11 10 10 11 10 9 8 8 7 7 9 9 8 8 8 7 7 9 10 9 7 6 8 11 11 10 8
2 2 4 5 4 5 6 7 5 8 6 1 5 5 4 5 9 11 7 12 15 12 12 13 12 11 10 8 8 9 9 9 11 16 25 29 30 32 32 29 26 26 27 26 26 26 27 28 30 29 28 27 25 24 23 21 21 20 19 19 20 20 19 16 14 13 13 13 12 11 10 10 9 9 9 9 8 8 8 8 10 10 9 9 8 7 8 9 10 9 8 7 8 11 12 12 11
4 1 3 4 4 4 4 7 6 5 6 4 5 4 5 7 8 11 9 12 15 13 13 14 13 11 10 9 8 9 10 11 11 15 25 29 28 30 26 25 29 31 30 29 29 28 27 29 29 28 27 26 25 24 22 22 21 20 20 20 20 19 16 14 13 14 13 12 11 10 9 9 8 8 8 8 7 7 7 7 8 9 8 8 7 7 8 9 9 9 9 10 9 11 13 13 12
4 2 2 4 4 5 5 6 5 2 3 5 6 5 8 12 9 9 10 9 16 16 15 14 13 12 11 9 9 9 10 12 11 16 25 27 25 22 20 28 34 33 30 29 27 26 26 27 28 28 27 26 25 24 23 22 22 21 21 20 19 17 15 14 14 13 12 11 10 8 7 8 8 8 8 7 7 6 6 6 7 7 8 8 7 7 9 9 9 9 9 10 10 11 12 13 13
3 4 3 4 5 6 7 8 6 2 3 6 7 7 9 14 13 11 11 6 13 15 14 12 11 11 9 8 9 9 10 9 7 14 20 17 17 20 29 35 36 32 29 27 25 25 25 26 27 27 25 25 26 25 24 23 23 22 21 20 19 17 16 16 14 12 11 9 8 7 6 7 7 8 8 7 7 5 5 6 7 7 8 9 8 8 9 8 9 8 8 9 11 12 13 14 15
6 6 5 5 5 6 7 9 8 2 3 6 9 10 11 15 15 13 11 5 10 12 12 10 10 10 9 11 11 8 7 4 11 14 16 19 22 29 37 37 33 31 28 26 28 28 27 27 27 25 24 25 26 26 25 24 24 22 21 20 19 18 18 18 16 13 11 9 8 7 7 7 8 8 7 7 6 5 5 6 7 7 8 9 8 8 7 6 7 7 8 9 11 13 15 15 18
7 6 6 7 6 7 9 11 8 2 3 6 9 10 12 16 15 14 11 6 7 12 14 13 13 12 11 12 11 8 7 10 16 20 26 31 28 30 35 33 32 31 28 29 31 29 28 28 27 26 25 25 26 25 24 24 24 22 21 21 20 20 20 19 17 14 12 10 8 8 7 7 8 6 5 7 6 5 5 5 5 6 7 7 7 7 6 5 7 8 10 11 11 13 15 17 20
6 5 5 6 6 6 11 9 4 1 4 5 10 9 12 17 15 14 13 9 7 11 17 18 17 14 12 12 10 10 12 14 16 16 21 29 30 30 32 32 32 29 26 29 31 29 28 29 28 28 28 27 26 25 24 24 23 21 21 21 20 20 19 17 16 14 12 10 9 8 7 6 7 5 4 5 5 4 5 5 5 5 5 6 7 8 7 7 8 9 10 11 12 13 14 18 18
5 5 4 6 7 5 7 5 4 5 4 5 9 8 9 13 11 10 12 7 3 9 18 20 19 18 15 11 8 12 14 15 15 12 13 18 23 26 26 28 30 27 21 20 24 27 28 29 30 30 30 29 27 25 24 24 23 21 21 20 19 18 17 16 16 15 13 11 11 9 6 6 6 5 4 4 3 3 4 4 5 5 5 5 6 7 8 8 8 9 10 10 12 13 15 16 12
5 7 6 7 9 8 7 4 5 7 6 4 3 2 6 7 7 9 8 2 2 6 14 15 14 14 11 9 10 12 14 15 15 13 11 13 18 23 25 28 30 33 30 25 24 26 27 28 30 30 30 28 27 26 24 24 24 23 21 18 18 18 18 19 18 17 15 12 11 8 6 5 5 6 7 6 5 4 4 4 4 4 5 5 6 6 6 7 7 8 9 10 11 12 14 14 10
6 6 9 12 13 11 7 6 6 6 7 4 4 2 6 5 4 8 4 1 2 6 12 15 13 9 9 10 12 13 12 13 13 13 12 13 17 21 24 26 28 31 34 33 31 28 27 28 29 29 29 28 28 26 25 24 24 24 22 22 24 23 22 21 20 19 15 12 10 8 6 6 6 7 8 8 8 6 4 4 3 3 4 5 5 5 5 6 7 8 9 9 10 10 12 14 13
6 6 9 13 12 8 5 5 3 1 5 5 4 2 5 5 2 6 3 2 4 5 9 12 12 9 9 9 11 13 12 12 12 13 13 14 17 18 19 24 27 29 31 33 33 31 29 29 29 29 29 29 28 26 25 25 24 23 25 27 28 26 24 22 20 19 15 13 11 9 7 8 8 8 8 8 8 7 5 4 3 2 3 4 4 4 4 4 6 8 10 9 9 9 11 14 16
6 6 7 9 7 6 5 3 3 3 5 6 2 4 2 3 4 5 1 4 6 7 8 9 9 10 10 9 11 14 13 11 11 12 12 13 16 19 20 23 25 27 30 30 30 31 31 31 30 29 29 29 28 26 26 24 24 26 28 29 27 25 24 22 22 20 17 15 13 10 8 8 8 8 7 7 7 6 5 5 4 3 2 3 4 3 3 3 5 7 9 9 9 9 10 12 16
8 8 8 7 6 6 4 3 4 3 2 7 6 2 2 4 5 4 3 5 3 6 10 9 10 11 12 11 12 13 12 11 12 12 11 13 16 20 24 26 25 27 30 30 30 31 32 33 32 30 30 30 28 26 25 25 26 29 29 28 26 24 23 23 22 20 18 17 15 12 9 8 8 7 7 7 6 6 6 6 5 2 2 4 5 4 4 4 5 6 9 9 9 10 10 11 14
7 7 7 4 2 2 2 3 3 1 0 6 8 1 1 4 5 5 4 4 1 3 6 6 10 12 12 13 13 12 10 11 13 13 12 15 20 24 27 28 29 32 36 38 38 37 37 36 33 32 31 30 29 27 26 27 28 28 28 27 26 25 24 23 22 21 20 18 16 14 11 10 9 8 8 8 7 7 7 8 5 3 5 7 6 5 5 6 7 8 9 10 10 10 10 10 12
4 4 4 2 3 2 1 2 2 2 2 7 9 3 3 3 5 3 1 1 3 7 8 8 11 12 11 12 12 12 11 10 12 12 12 16 22 26 29 29 30 33 35 37 38 37 37 36 34 33 31 29 28 27 28 29 29 27 27 26 25 25 25 24 24 23 20 18 17 16 14 13 12 10 10 9 8 8 7 8 8 7 8 8 5 5 5 6 8 9 10 10 11 10 10 10 11
4 3 2 1 4 4 2 3 4 3 4 7 7 4 6 2 4 3 5 6 3 9 12 13 14 12 11 11 11 10 10 10 10 10 10 12 15 19 24 25 25 25 26 27 30 31 32 34 34 33 30 27 27 28 29 29 28 27 27 26 25 25 25 26 26 23 20 19 18 18 16 15 13 11 11 9 9 8 7 8 10 11 10 9 6 4 4 5 7 9 9 10 11 11 11 11 11
3 3 5 2 3 2 1 3 1 3 5 6 5 4 4 4 5 4 8 8 2 7 12 16 18 16 14 12 10 9 9 10 9 9 10 10 10 12 16 18 17 18 22 25 27 29 30 30 31 30 28 26 26 27 29 28 27 26 25 24 25 25 25 25 24 22 19 18 18 18 16 14 13 11 10 9 8 7 8 9 10 10 10 10 8 6 4 6 7 8 8 9 10 10 11 10 11
3 3 4 4 2 0 1 3 1 2 4 6 4 2 1 3 2 7 8 7 3 9 12 12 14 15 14 12 10 9 9 9 9 8 9 8 7 10 14 16 16 16 18 21 24 26 26 26 27 29 27 26 26 27 27 26 25 24 22 23 24 24 24 22 21 20 19 17 16 16 14 13 12 10 9 8 8 8 9 10 9 9 10 10 10 7 6 6 7 7 7 8 8 8 8 8 9
3 4 5 5 4 4 3 3 2 3 4 4 3 1 1 1 3 8 7 6 6 11 14 14 13 11 10 9 8 9 8 8 7 7 7 7 7 11 15 17 16 14 14 16 19 22 24 25 28 30 28 26 26 27 26 24 23 23 22 22 22 22 21 19 19 19 18 15 14 13 13 13 12 11 9 9 9 9 10 10 10 9 9 10 10 8 7 8 7 8 7 8 8 8 7 7 8
4 2 5 3 5 6 2 2 4 3 1 1 2 0 1 3 3 8 7 10 11 9 12 15 15 12 11 9 6 7 7 6 7 6 7 9 9 13 16 17 16 14 14 15 16 19 22 25 28 29 28 27 26 26 25 22 21 22 22 21 19 20 20 18 18 18 16 14 13 13 14 14 13 12 12 11 10 11 11 10 9 9 9 10 11 9 8 8 8 9 9 10 10 9 9 8 8
2 1 2 5 5 7 3 1 1 2 2 1 1 3 2 2 4 10 9 11 12 9 9 11 12 12 13 10 7 7 6 6 7 7 7 8 10 12 14 17 17 16 15 15 16 18 20 23 26 28 28 27 26 25 24 22 21 22 21 18 17 20 19 17 17 17 16 14 12 13 14 15 15 14 13 13 12 12 12 11 10 9 9 11 12 10 8 9 10 11 11 11 11 9 8 8 7
3 1 4 3 1 4 4 1 2 3 2 3 2 4 2 2 2 7 9 8 10 8 7 8 8 10 10 9 8 6 5 6 6 7 8 7 8 11 13 16 18 18 17 17 18 19 20 24 27 29 29 28 28 26 24 22 21 21 18 14 17 20 19 16 17 16 15 14 12 13 16 17 16 15 14 13 12 13 12 11 11 10 11 13 13 11 10 10 12 13 13 12 10 9 8 7 6
4 4 2 3 1 1 1 2 1 2 2 2 3 1 1 1 1 4 7 4 7 8 7 6 6 8 9 8 8 6 4 5 5 6 7 7 9 12 13 15 16 17 18 19 20 19 20 21 23 26 28 29 29 26 23 21 20 20 16 13 17 21 18 16 16 16 16 14 12 14 17 18 16 14 13 12 13 13 12 11 12 12 13 14 13 11 11 12 12 13 13 12 11 10 10 9 9
1 1 1 2 3 3 2 2 3 4 3 1 2 2 1 2 2 0 3 4 4 7 8 7 7 8 8 7 7 5 5 5 5 5 4 5 7 9 11 13 15 16 17 17 17 16 17 17 18 20 23 23 22 21 20 19 18 19 15 13 18 21 19 18 17 16 15 13 12 15 17 16 14 12 12 12 13 13 12 12 14 14 13 13 12 11 12 12 13 13 13 13 11 11 12 13 14
2 1 2 1 2 2 2 0 1 4 4 3 1 0 3 4 1 3 3 3 4 5 7 7 7 8 7 6 6 5 5 5 5 4 3 3 6 9 9 9 12 12 12 15 15 14 15 16 16 16 14 14 15 16 17 18 18 17 15 15 18 19 18 18 17 15 14 13 13 15 15 13 12 11 12 13 12 12 12 13 15 13 12 12 12 11 11 12 14 14 14 13 12 13 15 17 17
4 3 1 1 3 3 2 1 2 2 4 4 4 2 4 4 0 3 4 3 3 5 7 7 6 6 5 4 5 6 6 5 4 4 5 7 9 12 12 11 11 11 9 11 13 12 13 13 12 11 10 10 12 13 14 15 16 16 14 14 16 19 20 19 18 15 14 14 14 14 14 11 11 12 12 12 11 11 13 14 14 13 12 11 11 11 11 12 14 14 14 13 13 15 16 17 17
Wind_Direction
270 232 237 276 309 339 318 93 81 315 87 254 250 232 255 230 228 275 282 293 313 320 325 53 30 66 105 111 116 96 45 15 190 132 157 130 137 151 161 155 149 147 143 142 146 152 152 149 148 146 146 146 145 143 141 139 138 139 137 134 127 121 118 116 116 115 116 117 117 118 116 113 109 106 104 106 109 111 108 106 108 105 102 99 98 98 97 100 103 105 104 104 105 106 107 107 109
253 228 246 293 309 5 256 100 98 338 62 279 248 193 260 272 223 253 261 255 226 127 2 77 76 75 102 119 120 89 49 28 81 98 99 115 121 137 150 149 148 146 141 142 147 151 151 150 149 147 146 147 146 144 142 140 140 140 139 135 129 124 122 120 120 120 120 120 121 122 120 116 113 113 113 113 114 115 111 107 106 105 105 105 103 100 100 100 103 107 106 110 113 114 114 114 115
232 221 273 332 311 145 57 55 109 116 110 250 254 227 286 310 258 256 249 250 229 158 196 63 76 62 103 96 52 69 81 51 83 94 108 121 118 130 141 143 145 144 141 143 146 151 152 151 151 148 147 148 147 145 143 142 141 141 140 136 131 128 126 125 124 124 124 124 125 125 124 119 117 117 119 119 118 118 116 114 112 110 109 108 108 104 103 101 100 101 105 114 119 122 122 120 119
204 209 305 5 8 41 62 72 153 132 180 235 275 258 253 259 257 266 256 257 247 155 171 37 62 344 60 87 72 82 106 103 91 103 113 123 130 138 139 139 142 142 143 143 147 151 152 152 151 149 148 149 148 145 143 143 143 141 141 138 133 130 130 129 127 127 127 128 128 128 125 121 120 118 119 118 117 116 115 115 114 114 113 111 111 110 108 105 103 100 105 116 123 126 125 122 120
197 222 278 29 76 6 100 155 146 153 209 201 261 257 233 240 264 287 275 265 232 148 144 116 101 354 48 81 102 101 117 120 93 96 102 118 134 138 137 138 141 142 143 144 148 151 152 152 150 149 149 150 149 147 145 145 144 142 142 139 135 133 132 130 129 130 130 131 131 130 127 124 122 119 119 118 118 117 117 118 118 119 118 118 117 117 115 110 107 102 107 118 125 128 127 125 122
212 253 273 38 139 244 129 229 221 224 231 186 247 267 277 291 291 294 292 305 44 125 132 116 116 110 73 50 27 84 132 124 102 105 113 126 137 138 138 140 142 143 144 145 149 150 151 152 150 149 150 151 151 148 147 146 145 143 143 140 137 135 133 131 130 130 131 132 131 129 126 125 125 122 123 122 122 122 123 123 122 122 122 122 118 119 121 116 109 97 103 119 127 130 129 126 123
224 4 51 56 308 323 120 223 233 250 244 199 246 276 290 292 285 287 290 298 45 82 107 116 126 111 75 67 32 51 108 118 117 126 128 134 138 138 141 143 144 142 144 146 148 150 152 153 149 149 151 152 151 149 147 145 144 143 143 141 140 137 133 133 130 128 128 129 129 127 126 128 129 128 128 127 129 129 128 127 126 125 124 124 119 122 124 119 111 95 98 119 130 132 131 127 123
99 15 162 90 357 332 143 244 241 246 244 212 245 265 272 275 276 287 281 263 190 108 113 140 133 100 31 67 72 54 90 112 123 129 133 137 141 142 145 145 143 140 143 146 147 150 152 152 149 150 153 152 149 147 145 144 143 143 143 142 140 137 134 133 129 127 127 129 129 130 130 133 137 134 132 132 134 134 132 130 131 130 128 129 127 129 130 124 113 99 101 125 136 136 133 128 124
134 85 23 95 121 303 258 265 255 249 254 245 255 260 265 270 276 275 260 238 146 105 120 172 116 100 100 78 87 80 92 112 121 128 136 140 145 144 143 144 141 140 143 145 147 151 152 151 149 151 153 152 148 145 145 145 145 145 144 142 141 137 136 134 131 131 131 131 131 133 133 136 140 137 133 132 133 135 135 134 135 136 134 134 135 135 137 132 120 103 103 131 143 139 135 127 121
80 154 120 100 113 287 277 263 253 266 269 263 261 260 264 267 270 253 230 178 122 101 91 80 77 108 117 91 92 103 112 120 122 131 140 141 144 142 143 144 144 146 146 145 149 151 150 151 151 151 151 148 147 147 148 147 147 146 143 142 142 139 137 135 134 134 134 134 135 136 136 139 141 138 134 132 131 133 135 135 139 142 141 140 138 137 138 134 123 110 99 127 145 139 132 125 117
35 269 142 98 100 235 255 255 262 282 283 283 268 257 249 250 263 245 213 142 114 118 126 95 91 113 106 95 104 114 122 126 129 139 142 141 142 141 143 145 148 150 146 146 149 149 149 150 150 150 149 148 148 149 150 150 149 145 143 143 142 139 136 134 134 134 135 137 139 140 140 141 141 140 137 134 133 134 133 134 137 139 142 140 133 132 135 132 126 118 99 113 139 138 127 123 117
73 271 101 124 191 213 230 251 277 291 285 285 273 269 237 223 238 226 188 133 126 139 160 130 124 124 101 109 125 114 120 127 134 141 143 143 143 142 145 148 151 151 146 146 147 148 149 149 150 150 149 149 150 151 151 150 147 144 144 144 142 138 136 135 135 135 137 139 142 144 145 145 144 144 141 138 137 134 132 131 132 131 136 135 128 126 129 132 129 124 104 106 132 144 134 126 122
157 203 100 149 203 203 254 268 280 293 290 281 272 282 246 201 208 208 166 90 122 152 184 145 143 125 100 121 114 109 118 134 137 140 144 142 141 142 147 150 150 149 146 146 148 149 149 149 150 149 149 149 151 152 151 148 145 144 144 144 141 139 138 137 136 137 139 140 142 147 150 151 151 151 148 145 141 136 131 129 130 130 131 131 127 124 124 126 128 127 111 106 125 146 149 136 126
188 198 127 228 261 241 264 257 272 284 283 279 274 299 324 168 187 180 103 48 12 86 100 124 133 108 109 132 114 114 135 145 138 137 141 136 139 141 144 147 146 146 146 148 149 149 150 150 150 148 148 149 150 150 149 147 143 145 145 145 142 140 140 139 139 139 141 140 142 148 153 156 157 156 153 150 145 138 131 127 130 129 127 126 122 121 123 121 117 113 106 108 114 137 156 151 134
183 216 140 226 301 289 245 220 275 275 275 282 286 326 338 298 144 102 105 89 32 57 91 112 123 102 144 166 139 152 158 149 136 133 134 132 136 136 138 141 142 145 147 149 148 149 151 151 151 149 151 150 150 147 145 146 145 148 147 146 144 143 142 142 145 145 144 142 144 148 152 155 157 157 153 150 146 141 133 128 129 126 122 122 118 114 118 119 111 103 96 102 109 122 156 162 147
180 180 130 257 266 271 240 212 271 258 277 285 287 335 352 302 44 86 132 118 94 50 76 117 289 123 157 159 137 149 153 145 132 131 129 128 130 129 132 136 141 146 147 149 148 152 153 153 152 150 153 153 151 148 146 147 148 149 148 149 148 147 146 147 150 149 148 146 148 148 147 151 154 156 155 152 149 143 136 133 128 119 115 115 112 107 106 106 97 87 82 89 110 135 159 167 158
191 172 214 244 244 256 226 199 244 242 283 300 303 339 50 324 24 55 47 91 98 82 66 50 42 98 126 124 135 143 144 139 132 131 127 126 128 126 129 132 139 144 146 148 151 156 157 154 152 151 154 154 152 148 146 147 150 152 151 151 149 150 152 154 154 152 154 153 151 148 147 151 153 156 156 154 149 141 139 136 124 113 111 110 107 102 96 90 82 74 71 74 90 156 169 169 165
194 179 207 225 236 244 170 159 246 257 292 308 312 320 69 8 64 110 56 75 89 81 68 67 67 78 99 118 134 138 140 138 136 136 132 133 133 130 132 135 140 143 143 146 155 161 160 155 152 153 154 153 151 148 148 151 155 155 152 150 150 155 158 159 159 158 161 158 156 155 153 154 156 157 156 152 146 140 142 137 121 113 111 110 108 102 94 84 79 75 69 71 72 124 166 172 169
188 181 194 222 229 240 126 201 253 280 296 304 306 300 20 9 253 146 89 96 99 86 65 82 92 100 110 124 134 138 141 141 142 142 139 139 139 138 136 138 142 142 141 147 160 165 160 154 154 155 153 152 150 149 152 156 157 153 150 151 156 160 162 163 164 165 166 161 160 159 156 156 155 154 151 148 143 141 145 136 120 114 113 111 113 109 104 94 88 87 79 77 70 100 148 167 169
204 187 208 237 235 262 278 250 267 287 285 293 297 300 353 324 306 80 111 116 110 113 119 109 116 128 132 136 137 139 142 144 148 144 141 141 141 141 138 141 146 145 146 154 164 165 158 153 154 155 152 153 152 153 157 158 155 152 154 159 162 163 166 167 167 169 168 163 163 161 157 154 150 147 147 147 145 146 146 134 119 113 114 114 118 118 116 107 99 102 97 89 73 78 114 140 159
224 182 217 247 237 269 267 256 273 275 274 283 290 325 350 311 331 103 127 115 112 146 154 141 140 145 143 145 141 141 143 146 150 146 142 140 139 138 137 141 147 149 154 161 164 161 156 152 154 155 155 157 157 159 161 159 156 158 163 166 165 167 170 170 170 174 171 165 165 163 159 150 147 149 151 151 147 150 145 131 120 116 118 114 113 112 112 114 107 105 100 93 81 73 79 77 307
267 228 234 253 244 257 265 261 259 262 272 280 291 317 310 295 359 134 156 143 170 182 165 150 149 153 152 150 145 144 147 150 152 149 144 140 137 131 126 132 146 158 163 165 163 159 157 154 156 157 157 161 163 164 163 161 162 165 168 167 168 171 173 173 174 178 173 166 166 167 162 153 152 158 160 157 151 153 146 131 124 121 118 108 100 94 98 113 111 109 107 99 89 71 46 15 315
244 265 256 255 248 244 261 266 256 259 271 276 282 274 230 326 343 203 165 157 171 173 161 151 151 153 148 143 144 150 153 153 152 149 145 139 132 127 131 148 165 173 171 168 163 161 161 158 160 161 161 165 167 168 165 164 167 170 170 170 172 173 173 175 178 180 176 168 170 174 170 164 165 167 168 167 161 159 149 137 131 121 115 106 94 79 76 103 114 118 124 107 59 34 16 358 321
214 259 263 259 255 244 251 255 254 258 259 262 271 267 219 0 330 357 70 110 137 139 144 143 143 141 136 136 146 152 152 149 146 147 144 136 134 137 150 165 173 175 170 167 165 165 165 163 165 165 165 170 172 171 168 168 170 172 173 174 176 176 175 180 183 182 180 175 175 179 179 177 176 175 174 175 173 164 150 137 131 123 117 108 86 57 31 37 169 162 124 61 16 18 13 10 6
226 244 258 264 262 252 254 248 246 250 246 255 267 275 254 197 171 88 110 126 130 132 133 135 138 136 135 141 148 151 147 142 139 144 140 133 137 143 156 169 172 174 172 169 169 169 168 166 166 168 169 173 175 174 173 173 173 174 177 178 179 180 178 184 188 184 183 183 182 186 191 186 182 184 181 182 181 165 147 136 130 126 113 98 62 36 29 18 252 202 117 39 18 25 31 38 72
231 237 251 259 265 261 263 259 251 251 240 238 256 276 276 250 154 119 153 146 133 133 136 141 142 140 141 146 152 152 147 143 141 143 136 134 142 148 159 169 172 177 178 175 173 169 169 168 167 171 173 176 177 177 179 177 175 178 180 180 183 183 181 186 191 188 188 190 189 194 198 192 189 192 191 189 183 169 160 151 146 147 149 154 39 46 127 16 268 184 123 43 34 42 50 59 89
247 258 266 259 266 268 263 265 260 262 246 204 214 244 268 281 215 171 216 156 136 135 143 153 150 146 150 152 155 154 149 148 147 143 135 138 150 157 164 171 176 181 180 177 172 165 169 169 169 174 177 179 178 178 182 179 177 182 182 182 187 186 183 186 191 194 195 196 196 195 194 194 195 196 198 195 186 182 180 177 184 192 202 207 78 67 135 66 128 148 123 123 102 73 70 73 92
271 272 286 277 279 282 271 271 263 267 255 199 191 221 253 316 220 197 194 166 145 143 152 164 157 150 155 155 156 155 151 151 150 147 144 151 163 165 167 173 176 178 180 175 164 159 165 167 169 175 179 181 179 179 183 179 179 186 185 184 188 187 186 190 193 197 198 199 201 197 191 190 193 197 200 198 193 190 185 187 188 181 182 186 168 122 134 129 131 137 134 140 118 99 90 82 94
293 286 292 285 294 292 273 266 260 260 247 204 180 237 281 294 240 212 176 164 151 147 157 170 161 150 158 160 158 161 156 153 155 155 156 161 169 169 170 176 174 173 177 169 156 156 159 164 170 176 180 180 178 179 181 182 183 187 188 188 190 190 191 194 195 197 199 200 203 202 195 188 191 197 198 197 197 192 185 186 178 165 166 169 165 155 152 148 147 146 138 130 116 111 105 90 100
311 310 290 287 309 293 264 239 260 270 235 193 161 241 275 254 251 237 173 160 152 151 163 170 162 152 160 166 163 164 162 159 161 161 162 165 171 173 173 176 175 171 169 159 153 154 155 164 173 178 180 178 176 178 181 185 185 185 189 191 191 192 193 195 197 200 201 201 206 209 204 197 198 199 196 198 199 195 190 186 180 173 171 169 165 159 160 162 162 159 141 129 124 116 110 107 115
321 314 311 290 278 277 280 260 266 287 250 179 157 226 253 253 260 243 180 164 160 160 168 168 163 161 162 171 174 170 167 166 164 161 164 168 172 175 175 175 175 169 160 153 152 153 156 167 176 179 179 178 179 179 180 183 182 182 188 188 187 191 195 199 201 202 203 205 211 213 211 213 206 198 197 204 205 203 198 191 191 186 177 173 171 168 170 170 172 171 152 136 124 117 116 120 127
319 295 305 296 240 275 298 277 225 240 269 160 160 226 254 250 257 246 192 172 171 164 167 169 168 171 167 174 181 171 165 165 164 162 167 171 173 176 176 172 169 160 149 143 147 152 161 173 180 179 179 181 182 180 180 180 178 180 184 184 185 190 195 199 202 203 205 207 209 207 208 213 204 196 202 212 214 214 211 201 197 194 185 179 179 182 185 181 181 179 165 151 128 121 124 124 130
316 187 245 271 263 291 306 288 246 214 244 238 179 214 256 254 252 250 214 172 175 168 165 170 171 174 171 175 187 173 162 166 167 166 170 174 175 176 174 166 155 143 137 140 150 159 167 176 181 180 179 181 181 180 180 177 175 178 181 182 187 191 194 198 199 199 200 201 200 200 202 206 201 200 208 214 216 216 214 204 194 194 189 183 186 189 191 188 188 186 171 158 140 131 133 132 135
280 264 239 261 253 265 288 294 290 232 223 241 227 215 235 253 247 243 229 171 169 171 168 174 176 176 173 176 191 178 162 170 175 172 174 177 178 175 165 146 137 137 145 155 162 165 169 176 179 179 177 176 177 177 176 175 176 178 182 186 188 192 195 196 193 193 195 195 191 189 196 200 199 204 212 217 218 215 214 206 194 192 191 190 194 192 190 189 189 189 172 154 140 137 139 139 141
228 247 251 276 268 261 268 272 286 280 249 251 253 252 245 256 253 241 239 177 163 174 174 176 178 175 174 176 189 184 170 178 180 172 173 174 174 163 129 118 127 140 152 157 160 164 169 176 178 177 174 171 173 174 173 173 175 178 182 186 190 194 195 191 188 189 191 190 183 180 188 190 190 198 209 217 218 221 224 216 202 196 198 199 198 190 186 187 186 183 172 153 136 136 144 147 146
222 242 228 250 270 269 267 263 264 254 270 265 250 249 241 247 248 242 248 189 160 176 173 172 177 171 169 176 194 187 174 179 156 157 165 158 142 118 102 108 123 141 149 147 156 164 169 176 179 178 173 169 170 172 171 172 174 178 181 186 192 195 192 186 182 181 184 189 186 186 190 185 186 194 204 213 217 228 229 220 211 198 198 199 193 188 187 188 185 177 168 157 141 133 141 151 153
258 280 271 261 267 271 274 273 277 235 227 257 243 242 241 242 242 237 239 182 150 166 161 165 173 170 173 184 194 176 152 110 80 103 106 87 86 92 98 110 128 146 148 148 159 164 167 175 180 179 173 171 172 171 172 173 175 177 181 186 188 186 184 181 179 178 180 188 191 193 190 182 188 196 203 205 207 217 211 209 209 198 202 206 196 190 192 188 182 173 161 157 147 135 139 152 157
251 263 272 279 270 270 275 273 284 240 201 259 250 241 245 241 236 236 231 181 161 165 155 166 176 178 184 188 184 148 108 82 81 88 88 89 95 101 110 126 146 156 158 161 162 161 164 173 179 178 174 175 178 177 176 176 177 179 180 182 180 178 178 179 180 180 180 184 189 189 180 176 184 189 196 198 197 196 189 190 193 191 199 203 193 188 187 173 170 168 158 155 150 141 143 154 155
245 247 259 271 264 278 275 270 311 265 203 262 260 242 243 241 232 232 227 202 190 170 160 170 177 178 186 188 172 127 106 99 99 98 102 113 122 125 131 143 154 159 165 167 161 157 162 170 176 177 177 180 182 183 182 179 178 179 178 174 173 175 178 181 180 176 174 173 172 172 166 168 178 178 176 184 184 176 171 173 176 177 181 179 175 173 170 167 169 169 161 160 155 143 144 154 156
239 238 246 258 256 266 265 276 345 301 245 246 260 248 239 246 240 239 236 216 189 171 170 173 175 177 181 178 147 119 116 114 111 107 111 120 123 126 135 144 148 153 165 169 160 159 164 170 175 178 181 183 182 183 182 180 177 175 173 172 175 177 176 178 176 171 169 164 161 163 156 151 155 153 139 133 149 153 151 162 173 181 176 172 174 170 166 168 170 169 166 170 166 150 146 160 170
247 229 225 248 255 244 245 290 329 317 307 262 252 280 254 254 242 243 255 253 112 160 169 171 175 176 162 126 107 114 119 120 123 122 118 118 122 131 140 146 151 155 163 170 168 167 168 172 176 180 182 180 179 180 180 180 177 173 174 173 172 167 159 161 163 163 165 161 158 160 159 155 147 136 118 107 111 120 132 152 168 182 180 177 183 183 174 171 175 176 174 179 183 170 159 167 180
264 237 219 233 248 249 255 301 327 346 319 284 86 44 278 293 237 231 263 8 112 152 161 164 171 158 118 104 111 118 117 122 127 125 124 127 134 141 144 150 157 159 162 167 170 171 173 175 179 180 180 177 178 180 179 178 176 178 180 170 160 154 150 155 159 159 161 158 155 156 156 157 158 144 121 107 103 102 111 126 139 167 179 181 185 187 181 178 182 189 188 187 194 194 178 171 174
259 241 216 224 234 239 247 283 298 302 274 276 76 121 258 319 296 234 244 72 102 139 153 157 161 140 116 120 123 122 125 129 125 123 129 137 143 147 150 159 163 162 162 164 166 170 174 178 181 182 179 177 179 179 177 178 179 184 181 168 158 155 155 159 161 158 155 154 155 152 137 127 135 140 130 117 111 108 101 95 106 142 166 178 183 180 178 182 182 191 198 198 202 207 196 181 176
244 235 207 214 214 215 229 252 239 229 271 302 4 125 167 303 278 251 221 73 85 128 146 155 153 129 117 121 122 128 133 131 124 125 135 144 152 153 157 167 168 162 161 161 162 167 173 178 183 185 182 179 180 178 177 180 180 178 174 165 160 159 159 160 160 157 154 153 155 153 139 121 119 122 124 122 116 117 112 101 104 119 155 170 174 165 166 180 177 188 203 208 212 214 213 201 185
240 224 203 218 215 207 224 252 254 261 312 305 304 87 101 277 275 303 29 58 56 138 147 155 142 119 118 123 125 129 130 126 125 131 143 152 157 158 161 168 167 162 161 161 162 167 174 180 184 185 184 182 180 178 180 182 179 174 170 165 162 160 160 158 158 156 155 157 158 160 157 141 129 122 123 126 120 118 121 121 113 105 162 161 153 152 162 184 191 201 208 210 214 213 220 221 199
234 211 202 227 226 192 211 241 256 0 71 261 275 307 102 272 288 322 23 55 19 125 116 121 118 115 124 128 130 134 129 127 133 145 158 159 162 164 165 168 168 167 168 169 169 173 177 180 183 185 186 185 182 182 183 181 177 174 171 167 163 160 157 156 157 157 159 163 162 162 163 153 144 140 139 145 145 133 123 123 121 127 160 161 158 163 175 194 205 210 208 205 205 206 211 219 209
193 177 205 283 334 25 38 246 106 84 252 252 255 219 137 274 292 300 312 261 160 125 103 102 111 118 128 131 136 141 136 138 147 155 160 161 165 167 165 168 172 173 176 175 172 173 176 178 182 184 187 187 185 185 183 181 178 177 175 172 166 160 155 155 157 158 161 165 161 159 160 156 151 147 145 143 145 146 131 119 121 128 144 159 173 178 181 199 205 200 202 203 200 201 204 209 210
154 138 127 5 334 15 28 343 70 132 252 258 241 171 121 210 271 278 279 277 199 144 136 133 130 128 134 138 139 139 139 143 148 152 156 160 167 170 165 167 174 178 180 177 169 169 173 178 181 183 186 188 188 186 183 182 180 179 178 175 169 163 160 160 161 162 164 164 160 158 158 156 151 148 148 142 136 141 137 125 125 129 139 155 164 157 159 183 195 190 192 198 198 200 201 200 198
121 93 83 98 293 345 349 306 103 187 245 255 232 129 108 223 245 292 303 305 301 139 140 141 140 140 143 144 139 138 141 144 149 155 160 162 166 168 162 161 171 181 181 175 168 169 175 178 179 181 185 188 187 185 182 182 181 180 179 175 170 167 166 167 167 166 166 164 164 163 161 159 156 153 153 153 149 145 145 140 133 131 141 153 154 142 140 163 177 176 177 187 192 197 197 193 191
133 132 122 148 202 122 269 274 288 241 242 257 255 132 147 263 314 335 331 336 50 112 115 119 129 138 142 139 135 137 145 153 159 161 158 155 157 160 157 160 173 185 182 172 168 171 174 175 177 180 186 188 186 183 181 181 183 182 178 173 171 171 173 174 172 169 165 164 168 171 169 167 167 165 157 157 161 155 151 149 141 131 136 150 153 149 149 155 167 172 176 186 189 193 193 189 192
186 177 141 155 173 152 205 227 204 251 246 277 304 151 174 125 0 335 349 23 53 100 106 105 111 117 119 116 124 141 151 156 155 154 143 133 148 166 163 164 173 181 176 170 171 174 173 175 178 181 185 187 186 183 181 183 183 182 178 174 174 177 179 177 174 171 169 169 174 177 175 171 169 169 166 164 165 164 157 151 147 137 135 151 151 146 151 156 168 179 183 185 178 178 184 185 189
244 154 107 181 196 154 165 193 167 196 207 355 344 113 172 124 47 347 25 59 50 70 97 107 114 115 112 112 130 149 152 148 143 146 137 129 154 176 171 163 166 172 176 177 178 178 178 179 180 181 183 185 185 183 183 185 182 179 178 178 180 183 182 177 172 171 169 171 179 182 178 172 168 166 167 166 163 166 166 160 160 149 137 149 152 143 146 154 166 176 175 173 166 164 174 179 180
255 72 154 225 187 134 128 254 42 81 133 281 24 93 16 47 40 354 12 63 57 50 77 99 110 116 119 125 145 160 158 149 143 142 139 138 156 173 171 163 163 169 176 181 184 185 185 184 182 181 181 184 185 184 185 185 180 177 178 182 186 186 183 177 169 169 169 172 184 189 180 171 169 169 168 169 166 164 162 160 166 160 143 147 153 147 143 149 158 163 162 163 161 160 169 173 174
144 169 218 235 65 96 110 138 15 40 158 268 5 98 47 21 47 335 344 53 67 56 68 86 101 114 119 124 138 156 160 151 141 134 135 138 147 164 170 167 167 171 175 181 189 192 192 190 187 183 181 184 187 186 186 184 179 176 175 181 188 186 183 176 170 173 176 176 184 186 176 170 170 171 171 173 173 167 163 163 165 159 150 153 155 151 148 151 153 151 152 155 153 152 157 161 166
175 191 175 102 125 241 84 145 159 93 156 290 339 56 68 62 149 305 323 22 79 86 91 96 106 116 117 116 126 140 145 138 130 126 137 148 152 162 168 163 162 170 178 185 191 195 198 197 191 184 183 186 188 188 185 181 178 176 175 181 185 183 180 176 175 178 178 177 178 173 169 169 170 173 176 178 175 171 171 173 166 155 152 156 159 160 158 159 158 154 153 156 153 153 149 145 144
322 213 269 91 140 174 159 164 160 141 146 192 334 359 4 244 225 267 336 353 66 105 114 117 121 120 115 113 119 126 124 120 119 118 131 158 156 154 156 152 151 161 171 177 181 187 193 196 192 188 187 185 183 182 179 177 177 178 178 182 182 181 181 178 177 176 175 174 173 168 167 168 170 176 181 180 179 179 179 177 168 159 158 160 163 169 166 163 164 163 162 162 160 153 146 142 141
3 103 267 339 97 130 159 147 110 127 136 151 159 314 277 257 236 98 74 15 30 89 102 103 111 115 112 112 117 124 128 125 124 114 94 91 96 93 98 113 121 130 148 159 166 177 184 187 189 188 183 171 166 168 171 174 176 178 183 186 183 181 180 177 173 174 174 171 169 168 168 169 171 175 179 180 184 186 181 176 171 167 167 167 169 174 174 170 168 166 165 164 157 150 145 144 144
78 98 289 223 143 134 136 227 305 88 126 154 157 173 261 278 351 107 110 86 57 73 87 82 73 81 92 113 132 137 137 131 120 101 81 74 82 83 74 73 96 109 123 143 156 168 173 173 175 174 162 151 152 157 164 170 173 175 180 184 184 182 179 175 172 174 176 172 170 169 169 170 171 173 179 184 184 181 175 173 174 174 174 171 173 179 182 178 172 168 168 165 157 151 149 148 149
Height
776 778 778 779 778 778 779 779 791 792 794 803 796 791 780 764 762 761 759 757 754 747 738 736 732 729 732 743 751 752 755 756 757 763 769 766 760 763 765 767 770 771 774 777 780 783 784 785 785 785 786 787 788 789 790 791 793 794 795 797 798 799 800 801 802 803 803 803 804 805 806 806 807 808 809 810 811 812 812 813 813 814 815 816 816 816 817 817 817 818 819 820 820 820 821 821 821
776 778 778 778 777 779 781 780 795 801 801 804 791 784 772 760 762 762 759 755 751 745 739 735 734 735 735 739 740 745 757 756 751 755 760 760 761 765 766 768 770 771 774 777 780 783 784 785 785 786 786 787 788 789 791 792 793 795 796 797 799 799 800 801 802 803 804 804 805 806 807 807 808 809 810 811 812 813 814 814 815 815 816 817 817 817 818 818 818 819 819 820 821 821 822 822 822
776 778 778 778 778 779 781 783 797 805 805 801 788 776 765 764 763 757 751 745 741 738 740 737 737 740 740 744 743 748 762 758 752 754 759 760 762 767 768 769 770 772 774 777 780 782 784 785 785 786 787 788 789 790 791 793 794 795 797 798 799 800 801 802 803 804 804 805 806 807 807 808 809 810 811 812 813 814 815 815 816 816 817 817 818 819 819 819 819 820 820 821 822 822 823 823 823
776 778 778 778 780 781 785 790 797 802 804 796 785 770 762 763 756 751 744 737 734 734 740 740 743 742 740 751 749 751 761 758 755 754 758 762 762 767 768 769 771 772 775 777 780 782 784 785 786 786 787 789 789 791 792 793 795 796 797 798 800 800 801 802 803 804 805 806 806 807 808 809 810 811 812 812 814 814 815 816 816 817 817 818 819 820 820 820 821 821 821 822 823 823 824 824 824
777 778 778 778 783 784 786 792 795 798 795 788 781 766 759 757 750 749 740 734 733 734 738 740 749 745 740 748 748 754 759 757 758 754 757 763 763 767 768 770 771 773 775 777 779 782 783 785 786 787 788 789 790 791 792 794 795 796 798 799 800 801 802 803 803 804 805 806 807 808 809 810 810 811 812 813 814 815 816 816 817 818 818 819 820 821 821 821 822 822 823 824 824 824 824 824 825
777 778 778 778 781 782 788 796 796 795 783 777 777 763 758 754 749 748 739 733 732 734 734 737 746 747 749 749 745 751 753 754 759 757 758 763 765 767 768 769 771 773 775 777 779 781 783 785 786 787 788 790 790 791 792 794 795 797 798 800 801 802 803 803 804 805 806 807 808 809 809 810 811 812 813 814 815 816 817 817 818 818 819 819 820 821 822 822 823 824 824 825 825 825 825 825 826
777 778 779 781 782 782 794 799 795 793 777 770 772 761 757 752 746 745 743 740 738 736 733 737 739 746 758 751 751 753 748 752 756 759 759 762 766 767 768 769 771 774 776 778 780 782 784 786 786 788 789 790 791 791 793 794 796 798 799 800 801 802 803 804 805 805 806 807 808 809 810 811 812 813 813 814 816 816 817 818 819 819 820 820 821 822 823 823 824 825 826 826 826 826 826 826 827
777 779 781 785 789 788 795 796 790 787 775 765 763 758 755 749 744 745 745 743 741 739 736 738 733 748 763 753 760 759 750 753 754 759 760 761 765 766 768 768 771 775 777 779 781 784 785 787 787 788 789 790 791 792 794 795 797 798 799 800 801 803 803 805 805 806 807 808 809 810 811 812 812 813 814 815 816 817 818 819 819 820 821 821 822 823 823 824 825 826 826 827 827 827 827 827 828
776 780 782 787 792 793 794 793 786 778 771 764 760 755 751 746 744 746 744 738 737 738 740 738 729 747 763 757 764 760 754 757 755 760 760 761 763 765 769 769 773 775 779 781 783 785 786 788 788 789 790 791 792 794 795 796 798 799 800 801 802 803 804 805 806 807 808 809 809 810 811 812 813 813 814 815 816 817 818 819 820 821 821 822 823 824 824 824 825 826 827 827 828 828 828 829 829
778 780 783 788 793 797 797 792 784 775 767 762 758 752 749 745 742 743 740 736 735 741 743 736 733 747 759 762 766 761 759 758 755 761 761 763 764 766 770 771 773 774 778 781 784 786 787 789 789 791 792 793 794 795 796 797 799 800 801 802 803 804 805 806 807 808 808 809 810 811 811 812 813 813 814 814 816 817 818 819 820 821 822 823 824 824 825 825 826 827 828 828 828 829 829 830 830
782 781 782 791 796 800 797 791 784 775 766 760 754 746 744 741 739 739 734 734 735 742 743 737 745 751 756 763 766 762 761 759 756 759 762 765 766 767 769 772 774 775 778 781 784 786 787 789 790 792 793 794 795 796 798 798 800 801 802 803 804 805 806 807 807 808 809 810 810 811 812 812 813 814 814 815 816 817 818 819 820 821 822 823 824 825 825 826 827 827 828 828 829 829 830 830 831
784 784 784 794 797 795 791 789 784 775 767 760 752 739 735 734 737 736 731 734 736 742 739 736 746 748 758 767 764 762 761 761 759 760 763 765 766 767 769 773 775 776 779 781 784 786 788 790 791 793 794 795 796 797 799 800 801 802 803 804 805 806 807 807 807 808 809 810 810 811 812 812 813 814 815 816 816 817 818 819 820 821 823 824 824 825 826 827 828 828 829 829 829 830 830 831 831
784 784 786 793 791 788 786 787 782 776 769 758 749 734 727 730 734 731 728 732 734 741 738 732 738 743 760 768 762 763 762 762 760 762 764 764 766 766 769 773 776 778 780 782 784 786 788 790 792 794 795 797 798 799 800 801 803 803 804 805 806 807 807 808 808 808 809 809 810 811 811 812 813 814 815 816 817 818 819 820 821 822 823 824 824 825 826 827 828 829 830 830 830 830 830 831 831
781 780 784 790 786 784 783 783 779 778 771 753 743 731 726 728 728 727 728 737 739 739 736 729 732 742 760 766 766 766 763 762 761 764 764 765 766 766 770 774 777 779 780 783 785 787 789 791 792 794 796 798 799 800 801 802 803 804 805 806 807 807 808 809 809 809 809 810 810 810 811 812 813 814 815 816 817 818 819 820 821 823 823 824 825 825 827 828 829 829 830 830 831 831 830 831 832
777 776 780 787 786 784 780 779 776 778 769 749 739 731 729 727 723 728 729 739 744 734 732 732 729 741 756 760 766 765 762 763 762 764 765 766 767 768 772 774 778 780 782 784 786 788 789 791 793 795 796 797 799 800 802 803 804 805 805 806 807 808 809 809 809 810 810 810 810 811 811 812 813 814 815 816 817 818 818 820 821 823 823 824 825 826 827 828 829 830 830 831 831 831 831 831 832
772 774 781 786 788 787 780 775 774 775 764 747 739 731 734 730 723 731 727 727 739 734 733 737 731 736 748 751 756 757 760 763 763 765 765 766 768 770 774 775 779 781 783 785 787 789 790 792 793 795 796 797 799 800 801 803 804 804 805 806 806 808 809 810 810 810 810 811 811 812 813 814 814 815 816 816 817 818 819 820 821 822 823 825 826 827 828 829 830 830 831 831 831 831 831 831 831
770 776 785 788 788 786 778 772 771 770 759 747 741 735 738 735 728 732 725 723 736 739 737 739 734 733 742 748 751 754 760 762 763 765 765 767 768 771 775 777 779 782 784 786 788 790 791 793 794 795 796 797 798 799 801 802 803 804 804 805 807 808 809 810 811 811 811 811 812 813 814 815 816 817 817 818 818 819 820 821 821 821 824 825 827 828 829 830 831 831 831 831 831 832 832 832 832
773 779 786 789 786 778 769 767 763 759 757 751 744 740 740 738 736 733 732 735 738 742 744 742 741 741 744 749 753 756 760 762 762 764 765 767 768 770 774 777 779 782 785 787 789 790 791 793 794 795 796 797 798 799 800 801 802 803 804 806 807 809 809 810 810 811 811 811 812 813 815 816 817 819 819 820 820 820 822 822 821 821 824 826 827 828 829 830 831 831 831 831 832 832 832 832 833
772 776 783 784 775 765 760 760 756 755 758 753 745 741 740 738 736 732 740 748 743 748 754 749 749 751 750 752 756 759 761 762 762 763 765 766 768 769 772 777 780 782 785 787 788 790 792 793 794 796 797 798 798 799 800 801 803 804 805 806 807 808 809 810 811 811 811 812 813 814 815 817 818 819 820 821 822 822 824 823 821 821 824 826 827 828 829 830 830 831 831 831 832 832 833 833 834
767 772 780 775 763 759 757 756 754 754 754 751 747 741 738 736 732 733 744 752 747 751 757 754 756 757 755 755 755 758 762 763 763 764 765 766 768 769 772 776 779 782 786 787 788 790 793 794 795 797 797 798 798 799 800 802 804 805 806 806 807 809 810 811 811 811 812 813 814 815 816 817 819 820 821 822 823 824 825 824 822 822 824 826 827 829 830 830 830 831 831 832 832 833 833 834 834
764 767 773 765 758 760 756 753 752 750 748 748 748 744 740 735 731 736 745 754 756 752 747 747 752 753 755 757 756 758 761 763 765 765 765 767 770 772 773 776 780 784 785 787 788 792 794 795 796 797 798 798 798 799 800 802 804 805 805 806 808 809 810 811 811 812 812 813 814 815 816 818 820 820 821 823 823 824 825 824 822 823 825 826 828 829 830 831 831 831 832 832 832 833 833 834 834
764 763 762 757 757 760 753 750 750 747 745 746 747 745 742 734 733 738 741 750 753 745 738 738 741 744 748 752 755 758 760 762 764 765 766 767 770 773 776 779 783 784 785 786 789 792 795 796 797 797 799 799 799 800 801 802 803 804 805 807 808 809 810 811 812 812 813 814 815 816 817 818 820 821 822 823 824 824 824 823 823 824 825 827 828 829 830 831 831 832 832 832 833 833 834 834 833
767 763 757 754 755 756 751 747 747 745 745 747 745 741 738 735 736 736 736 740 740 736 734 735 737 740 743 748 753 757 759 761 763 765 766 768 770 773 775 776 777 779 783 786 789 792 794 796 797 798 799 800 801 801 802 803 804 805 806 807 808 809 811 811 812 813 814 815 816 817 818 819 820 821 822 822 823 824 824 823 823 825 826 827 829 830 831 831 832 832 833 833 833 834 834 833 833
765 764 756 752 751 752 750 745 745 744 745 744 739 736 736 738 738 735 737 737 735 734 736 737 740 742 745 750 754 756 758 760 763 765 767 768 770 771 771 770 771 776 781 786 789 791 793 795 796 797 798 800 801 802 803 804 805 805 806 808 809 810 811 812 813 814 815 816 817 818 818 819 820 821 821 822 823 824 824 823 824 825 827 828 829 830 831 831 832 833 833 833 834 834 834 833 832
762 761 754 750 748 748 745 743 744 742 742 739 737 737 735 735 735 736 740 739 735 736 738 741 743 745 748 752 755 757 758 760 763 765 767 768 769 770 771 770 772 776 780 784 788 790 793 795 796 797 798 799 801 802 803 804 805 806 807 808 809 810 812 812 814 815 815 816 817 818 818 819 820 820 821 821 823 823 823 824 825 826 827 828 829 830 831 831 832 833 833 833 834 834 834 833 832
757 755 752 749 747 745 743 742 741 740 739 737 740 741 735 732 734 740 741 738 736 737 741 743 744 747 750 753 755 756 758 760 762 764 767 768 769 770 770 772 773 775 779 782 786 790 793 795 797 797 798 799 801 802 803 804 805 806 807 808 809 810 812 813 814 815 815 816 816 817 818 818 819 820 820 821 822 823 823 824 825 826 827 829 830 830 831 832 832 833 833 833 834 834 834 834 833
751 750 750 747 746 743 742 742 738 737 737 736 741 742 736 731 736 745 743 737 737 740 744 745 745 748 750 752 754 755 756 758 760 763 766 768 768 768 769 772 773 774 779 781 785 789 792 795 796 797 798 799 801 802 803 804 805 806 807 808 809 810 812 813 814 815 815 815 815 816 816 817 819 819 820 821 822 823 824 825 825 826 828 829 830 831 831 832 832 833 833 833 834 834 834 834 833
749 750 750 746 744 742 740 740 738 737 737 734 736 738 736 734 737 742 740 737 738 741 746 746 745 748 749 751 753 754 755 756 759 761 763 765 765 765 766 768 771 774 778 780 784 789 792 794 795 797 798 799 801 802 803 804 804 805 807 808 809 810 811 812 813 814 814 814 814 814 815 817 818 818 819 821 822 823 824 825 825 826 828 829 830 831 831 832 832 832 833 833 833 833 834 834 834
749 749 753 748 743 743 740 738 736 736 737 730 732 742 743 740 737 734 733 736 738 741 746 747 746 748 750 750 752 753 753 755 757 759 760 761 761 762 763 766 770 773 777 781 784 788 791 793 794 796 797 799 800 801 802 803 804 805 806 807 809 810 811 812 812 813 813 813 813 813 815 816 817 818 819 820 821 823 823 824 825 826 827 828 829 830 831 831 832 832 833 833 833 834 834 834 834
749 748 753 753 752 747 739 737 734 734 735 726 733 753 752 741 735 731 732 734 739 745 746 746 747 748 750 751 752 752 751 752 754 756 758 758 759 760 761 765 769 773 776 781 785 788 791 792 794 795 796 798 799 800 801 802 802 803 805 806 808 809 810 811 812 812 812 812 812 813 815 816 817 818 819 820 821 822 823 824 824 825 827 828 829 829 830 831 831 831 832 833 833 834 834 835 835
752 753 754 757 761 752 736 734 735 736 734 724 733 755 752 739 732 729 731 733 737 744 745 745 747 748 751 752 752 751 750 751 752 754 756 755 757 758 760 764 769 773 777 781 785 788 791 792 792 793 795 797 797 799 799 800 801 803 804 806 807 809 810 811 811 811 811 812 812 813 815 816 817 818 819 820 821 822 822 823 824 825 826 827 828 829 830 830 830 831 831 832 834 834 835 835 836
755 762 763 759 761 754 739 732 734 736 733 726 736 751 748 738 731 725 728 732 734 741 743 744 745 747 750 752 752 751 750 752 752 754 754 754 754 755 759 763 769 774 778 783 788 790 791 791 791 792 793 795 796 798 799 800 801 803 804 806 807 809 809 810 811 811 811 812 813 814 815 816 817 818 819 820 821 821 822 823 823 824 826 827 828 829 830 830 830 830 831 832 833 834 835 835 836
759 764 768 762 760 758 747 734 729 732 733 730 736 746 745 736 728 723 724 730 734 739 742 743 744 746 747 749 751 750 749 751 752 753 753 752 753 754 758 764 770 775 779 784 787 790 791 790 790 791 793 795 796 798 799 800 802 803 805 806 808 809 810 810 811 811 811 812 813 814 815 816 817 819 819 820 821 821 822 822 823 824 825 826 828 829 829 829 829 830 830 832 833 834 835 836 836
767 766 767 763 761 761 754 742 730 728 734 735 735 740 741 732 725 721 720 725 732 738 741 742 742 744 744 746 749 748 747 749 749 749 750 751 752 755 761 766 770 773 777 780 783 787 791 790 790 792 793 795 797 798 798 800 802 804 806 807 808 809 810 811 811 811 812 812 813 814 815 816 818 819 819 820 821 821 822 822 823 823 825 826 827 828 829 829 829 830 830 832 833 834 835 835 836
769 769 768 765 762 760 758 749 735 730 736 738 739 742 739 731 724 721 718 721 728 733 736 738 739 741 742 745 748 746 745 745 745 746 749 751 754 760 766 768 770 774 776 779 784 789 791 791 791 792 794 795 797 798 799 801 803 805 806 807 809 810 811 811 812 812 812 813 813 814 816 817 818 818 819 820 820 821 821 822 822 823 824 826 827 828 828 829 829 830 831 832 833 834 835 835 836
764 765 765 766 764 760 754 745 735 733 739 741 742 744 739 732 726 722 717 719 726 730 732 737 738 740 742 745 747 745 744 746 746 749 753 757 761 765 768 771 775 779 779 782 787 790 791 791 791 793 795 795 797 798 800 801 803 805 806 808 809 810 811 812 812 813 813 814 814 815 816 817 818 818 819 820 820 821 821 822 822 823 824 825 826 827 828 829 829 830 831 832 833 834 835 836 836
761 763 765 765 765 761 750 741 734 733 742 742 737 739 737 730 725 720 717 719 725 730 734 738 740 740 743 745 745 745 747 750 751 756 761 764 769 771 772 775 779 780 780 782 785 788 790 791 791 793 795 796 796 798 799 801 803 805 806 808 809 810 811 812 812 813 814 815 816 817 817 818 818 819 819 820 820 821 821 821 822 823 824 825 826 827 828 828 829 830 831 832 833 834 836 836 837
762 764 766 766 765 761 749 741 736 733 741 742 734 738 736 726 722 718 716 720 724 727 732 737 739 740 741 742 744 746 750 754 757 760 764 767 772 773 773 776 778 778 778 779 783 786 789 791 792 793 794 796 797 798 800 802 803 805 806 808 809 810 811 812 813 813 814 816 817 818 818 818 819 819 819 820 820 821 821 821 822 822 823 824 826 827 828 828 829 830 831 832 834 835 836 837 837
763 765 768 769 763 757 748 738 735 734 740 741 734 738 735 721 717 716 714 717 719 722 725 729 733 737 740 741 743 747 753 759 761 762 763 765 767 768 770 773 776 780 782 782 783 787 790 791 792 793 794 795 797 799 800 802 804 806 807 809 810 811 812 813 814 814 815 817 817 818 818 818 819 819 819 819 820 820 821 821 821 822 823 824 825 827 828 829 829 830 831 832 834 835 837 838 838
764 765 769 769 760 760 755 742 736 733 736 738 734 737 732 720 718 716 712 713 715 719 720 721 725 730 734 737 743 748 754 760 762 763 764 765 766 768 771 772 773 781 788 788 787 787 789 791 791 792 793 794 796 798 800 802 804 806 808 809 811 811 812 813 814 815 816 817 817 818 818 818 819 819 819 819 820 820 820 821 821 822 823 824 825 826 828 828 829 830 831 832 833 835 837 838 838
763 761 765 764 756 757 754 745 738 732 730 730 733 742 735 724 724 719 712 712 715 719 721 723 726 727 731 738 745 750 753 758 760 762 764 766 768 769 771 772 771 773 780 786 787 787 788 790 791 792 792 794 796 798 800 802 804 806 807 809 811 812 813 814 815 816 817 817 817 817 818 819 819 820 820 820 820 821 821 821 821 821 822 824 825 826 827 828 829 830 830 832 833 834 836 837 838
763 757 754 753 750 750 748 745 743 745 743 729 731 752 746 727 723 719 714 714 716 721 724 727 730 732 738 744 748 752 754 756 758 761 764 766 768 769 770 772 772 771 773 777 781 784 787 790 791 792 793 795 796 798 800 802 803 804 805 807 808 810 812 813 814 815 816 816 817 817 818 819 819 820 821 821 822 822 822 822 822 822 822 823 824 825 826 828 829 830 830 831 833 834 835 836 836
765 749 740 741 744 747 746 745 748 754 751 731 730 752 750 730 721 719 717 717 721 726 728 728 731 736 743 748 750 752 754 755 758 761 763 765 767 769 770 771 771 772 772 774 778 781 785 788 790 791 793 795 796 798 800 802 803 804 805 806 806 808 810 812 813 814 815 816 817 817 817 818 819 820 821 822 823 823 823 823 822 823 823 823 824 825 826 827 828 829 830 831 832 833 834 835 835
759 739 731 736 740 744 742 743 750 750 744 735 731 740 745 736 724 720 720 719 723 730 734 734 735 740 747 750 751 751 753 755 758 762 764 766 767 767 768 770 771 772 773 775 777 780 783 786 788 791 793 794 796 798 799 801 802 803 805 806 807 809 810 811 812 813 815 816 816 817 817 818 819 820 821 822 823 823 823 823 823 823 823 824 824 824 825 827 828 829 830 831 832 832 833 834 834
743 727 727 730 731 736 736 740 747 745 747 749 735 732 746 745 728 720 721 719 723 731 737 738 739 746 751 752 752 752 754 756 758 762 765 765 766 766 766 768 771 772 773 776 778 779 782 784 787 789 791 793 794 796 798 800 802 803 805 806 807 808 809 810 812 813 815 815 816 817 817 817 818 819 821 822 823 824 824 824 824 824 823 824 824 825 826 827 828 829 830 831 831 832 832 833 833
730 722 726 726 728 733 733 739 744 746 756 757 739 731 746 749 731 721 722 721 725 735 741 742 744 751 752 752 753 753 755 758 759 762 763 762 763 764 764 766 769 770 771 772 773 775 778 781 785 788 790 791 793 795 797 799 802 803 804 805 806 807 808 810 812 813 814 815 816 816 817 818 818 819 820 822 823 824 824 824 824 824 823 824 824 825 826 827 828 829 830 830 831 832 832 832 833
722 723 728 729 734 736 736 740 744 755 764 753 737 732 741 749 738 727 727 724 726 737 744 748 750 753 754 754 754 754 755 758 760 762 762 762 762 762 761 763 767 769 770 770 768 771 775 779 783 786 789 791 792 793 796 798 800 802 803 804 805 806 807 809 811 813 814 815 816 817 818 818 819 819 820 822 823 824 825 825 824 823 824 824 825 826 827 827 828 829 830 830 831 831 831 832 833
721 726 731 738 744 744 746 748 749 764 767 746 733 731 737 750 745 735 731 724 725 733 739 746 752 754 755 754 754 755 755 757 760 763 764 763 764 764 762 762 767 770 772 772 771 773 776 779 782 785 788 791 792 793 795 797 799 801 803 804 805 806 807 809 811 812 814 815 816 817 818 819 819 820 821 822 823 824 824 825 824 824 824 825 826 827 827 827 828 829 829 830 831 831 831 831 832
724 729 737 750 758 758 760 760 759 766 758 737 731 733 740 750 745 738 735 728 728 730 731 738 746 750 753 753 754 755 756 758 759 761 763 763 764 766 765 766 770 773 774 774 773 774 777 779 781 784 787 790 791 793 795 797 800 802 804 805 806 807 808 810 811 813 815 816 817 818 819 819 819 820 821 821 822 823 824 824 824 824 825 826 827 827 827 827 828 828 829 831 831 831 831 831 831
726 732 740 753 764 770 773 768 766 764 751 736 732 734 744 752 746 741 740 735 731 729 730 738 744 748 751 752 754 756 757 758 759 761 762 763 765 768 768 769 772 774 775 774 773 774 776 779 781 784 787 789 791 793 795 797 800 802 805 807 808 809 810 811 813 814 816 817 818 819 819 820 820 820 821 822 822 823 824 824 825 825 825 826 827 827 827 827 828 828 829 830 831 831 831 831 831
724 725 733 744 751 759 767 763 761 761 751 741 739 742 752 759 754 747 741 737 734 731 732 740 748 752 754 756 758 759 760 761 762 764 763 762 766 769 769 769 771 774 776 775 774 775 776 778 781 784 787 789 791 793 795 797 800 802 805 808 809 811 812 813 814 815 817 818 818 819 819 820 820 821 821 822 823 824 824 825 825 826 826 826 827 827 828 828 828 829 829 830 831 831 831 831 831
725 722 731 740 735 737 751 756 755 755 752 750 750 752 756 756 752 748 742 740 741 741 740 742 749 754 756 762 764 762 763 763 764 765 763 762 766 768 767 767 770 774 775 774 775 775 776 779 781 783 786 789 791 793 795 797 800 802 805 807 810 812 813 814 814 816 817 818 819 819 819 820 820 821 822 822 823 824 824 825 826 826 826 827 827 828 828 829 829 829 830 830 831 831 831 832 832
726 727 732 730 720 723 742 757 758 756 756 759 761 761 759 755 754 754 749 746 748 751 751 750 753 755 757 762 765 765 764 763 763 764 763 762 764 766 767 767 769 771 773 774 775 777 778 780 781 783 786 789 791 793 795 796 798 801 804 807 809 812 813 814 815 816 817 818 819 819 819 820 820 821 822 823 823 824 824 825 826 827 827 827 828 828 829 829 829 830 830 831 832 832 832 832 832
722 730 724 719 721 724 734 751 761 762 763 764 767 770 770 769 770 768 762 756 756 757 759 759 759 760 761 761 764 766 765 764 763 763 763 764 765 767 768 768 769 770 772 774 776 778 779 780 782 783 785 788 790 792 794 796 798 800 803 806 809 812 813 814 815 816 817 818 819 819 820 821 821 822 823 823 824 824 824 825 826 827 827 828 828 829 829 830 830 831 831 832 832 832 832 832 833
711 717 714 720 733 735 738 750 759 764 770 773 773 775 778 778 776 774 770 766 763 762 766 767 765 764 763 763 765 768 768 766 765 765 765 766 765 767 768 768 769 770 772 774 777 779 781 783 784 785 787 788 790 792 794 796 798 800 804 807 809 812 813 814 815 816 817 818 819 820 821 822 823 823 823 824 824 824 825 825 826 827 827 828 829 829 830 830 830 831 831 832 833 833 833 833 833
707 711 714 719 729 734 739 745 749 755 768 778 775 775 781 779 774 774 772 770 767 767 769 769 768 767 765 766 768 769 769 769 767 766 767 767 767 768 770 770 770 771 773 776 780 783 785 786 787 788 790 791 792 794 796 798 800 802 804 807 809 812 813 814 815 816 817 818 819 821 822 823 824 824 824 824 825 825 825 825 826 827 828 828 829 830 830 830 831 831 832 832 833 833 833 833 834
719 722 725 725 728 734 737 741 745 748 760 774 776 778 782 775 770 773 772 771 771 769 769 769 769 769 768 768 769 768 768 768 767 766 767 769 771 773 775 775 774 775 777 779 782 785 787 788 789 791 792 793 794 796 798 799 801 803 805 808 809 811 812 814 815 816 817 818 820 821 823 824 824 825 826 826 826 826 826 826 826 827 828 828 829 830 830 831 831 832 833 833 834 834 834 835 835
730 732 735 734 733 735 741 749 750 746 752 765 770 777 784 775 770 773 772 772 773 770 770 771 771 771 770 770 769 768 768 767 768 768 769 771 774 775 776 777 778 780 782 782 784 786 788 789 790 792 793 794 796 797 800 801 803 805 807 808 809 810 812 813 815 816 817 818 820 821 823 824 825 825 826 827 827 827 827 827 827 827 828 829 829 830 830 831 831 832 833 834 835 835 835 836 836